Location: Ottawa
(45.4170°N, 75.7000°W)
Time: 02:42:54
(UTC-04:00)

Daily predictions for brighter satellites

Satellite Brightness Start Highest point End
(mag) Time Altitude Azimuth Time Altitude Azimuth Time Altitude Azimuth
Cosmos 2082 3.8 00:08:04 10° NNW 00:13:45 64° WSW 00:14:40 55° SSW
Cosmos 921 Rocket 4.0 00:15:15 36° ENE 00:15:15 36° ENE 00:18:17 10° NNE
ALOS 2 2.7 00:14:39 63° ENE 00:14:39 63° ENE 00:18:59 10° N
Cosmos 1633 3.9 00:15:22 33° WNW 00:15:22 33° WNW 00:18:28 10° N
Cosmos 2278 3.7 00:17:39 52° SW 00:19:07 82° WNW 00:24:51 10° NNE
Cosmos 1602 4.5 00:22:21 47° WNW 00:22:21 47° WNW 00:25:54 10° N
Cosmos 1536 Rocket 4.0 00:21:22 10° NNW 00:25:31 51° W 00:25:31 51° W
Genesis I 3.9 00:22:10 10° NNW 00:25:46 52° NNE 00:25:46 52° NNE
Cosmos 2151 Rocket 4.1 00:25:49 49° W 00:26:08 50° WNW 00:30:28 10° N
CZ-2C R/B 2.4 00:21:10 10° NNE 00:26:23 83° ESE 00:26:54 72° S
Cosmos 1371 Rocket 4.0 00:26:32 59° SW 00:27:26 74° WNW 00:32:39 10° NNE
H-2A R/B 4.1 00:27:42 16° W 00:27:55 16° W 00:30:33 10° NW
Cosmos 1300 Rocket 3.6 00:28:19 78° NNW 00:28:19 78° NNW 00:32:25 10° N
Cosmos 1461 4.2 00:25:16 10° NNW 00:29:17 36° NE 00:30:06 33° ENE
Cosmos 1190 Rocket 3.8 00:24:36 10° NNW 00:29:50 77° WSW 00:30:12 73° SSW
Mayak -0.1 00:26:28 10° NNE 00:29:34 35° ENE 00:29:34 35° ENE
USA 229 DEB 3.6 00:30:45 51° SSW 00:32:38 76° ESE 00:39:36 10° NE
USA 229 3.6 00:30:54 51° SSW 00:32:44 75° ESE 00:39:41 10° NE
Cosmos 1656 3.6 00:32:39 61° SW 00:33:39 81° WNW 00:39:13 10° NNE
Cosmos 2227 Rocket 3.1 00:31:31 10° NW 00:36:35 35° WSW 00:37:06 34° WSW
NOSS 3-1 (A) 4.5 00:39:24 28° ESE 00:39:24 28° ESE 00:44:11 10° NE
CZ-4C R/B 2.9 00:32:33 10° NW 00:39:38 78° NE 00:42:51 39° SE
Cosmos 676 Rocket 3.9 00:35:52 10° NNW 00:41:10 82° ENE 00:41:36 74° SE
Nadezhda 2 Rocket 4.3 00:41:08 62° S 00:42:15 85° E 00:48:24 10° N
Cosmos 1140 Rocket 3.6 00:39:13 10° NNW 00:44:22 61° ENE 00:44:59 57° E
Cosmos 2263 Rocket 4.0 00:43:26 10° N 00:48:10 26° NE 00:51:48 14° E
GP-B 3.2 00:44:13 10° N 00:48:24 75° NW 00:48:24 75° NW
Cosmos 407 Rocket 3.7 00:44:09 10° NNW 00:49:24 59° WSW 00:49:36 58° WSW
Cosmos 1624 Rocket 4.4 00:49:48 47° WSW 00:50:56 57° WNW 00:56:13 10° NNE
ISS -1.5 00:55:58 10° NW 00:57:24 22° NW 00:57:24 22° NW
BREEZE-M DEB (TANK) 3.7 00:44:24 10° SW 01:00:12 72° SSE 01:04:16 10° ENE
Cosmos 1980 Rocket 2.0 01:01:51 70° SE 01:02:14 73° ESE 01:07:51 10° NNE
Cosmos 1544 Rocket 4.4 01:06:49 41° ENE 01:06:49 41° ENE 01:10:35 10° NNE
CZ-4B R/B 2.9 01:12:24 36° NNE 01:12:24 36° NNE 01:14:47 10° N
Cosmos 1536 4.4 01:15:11 27° WNW 01:15:11 27° WNW 01:18:35 10° NNW
Cosmos 1743 4.4 01:15:55 27° ENE 01:15:55 27° ENE 01:18:28 10° NNE
Okean 1 Rocket 4.0 01:15:29 39° WNW 01:15:29 39° WNW 01:19:28 10° N
Cosmos 1500 4.1 01:16:59 48° NNE 01:16:59 48° NNE 01:19:52 10° NNE
BREEZE M DEB (TANK) 4.3 01:03:27 10° SW 01:17:21 40° ESE 01:19:50 10° ENE
Cosmos 1954 Rocket 4.2 01:14:30 10° NNW 01:19:37 57° WSW 01:19:37 57° WSW
NOSS 3-1 (C) 3.2 01:20:00 65° S 01:20:46 74° SE 01:27:17 10° NE
Cosmos 1455 Rocket 3.6 01:22:47 52° ENE 01:22:47 52° ENE 01:26:38 10° NNE
Okean 2 4.4 01:19:13 10° NNW 01:22:22 39° WNW 01:22:22 39° WNW
Cosmos 1697 Rocket 3.4 01:26:53 35° WSW 01:28:37 45° WNW 01:34:02 10° NNE
H-2A R/B 3.8 01:25:33 10° NNE 01:28:25 30° ENE 01:28:25 30° ENE
Cosmos 2297 Rocket 4.1 01:26:57 10° WNW 01:30:09 16° W 01:30:09 16° W
Cosmos 1025 Rocket 4.3 01:26:39 10° NNW 01:29:54 31° WNW 01:29:54 31° WNW
Cosmos 1745 Rocket 3.9 01:29:34 61° S 01:30:43 83° E 01:36:53 10° N
SL-08 R/B 4.5 01:32:46 58° SSW 01:34:04 78° W 01:40:26 10° N
Lacrosse 5 rocket 4.1 01:34:31 10° NNW 01:37:11 18° NNE 01:39:57 10° ENE
Cosmos 405 4.3 01:39:47 39° NNE 01:39:47 39° NNE 01:42:09 10° NNE
Cosmos 614 Rocket 4.3 01:38:21 10° NNW 01:42:54 48° W 01:42:54 48° W
Cosmos 1452 Rocket 4.1 01:47:07 42° W 01:48:07 47° WNW 01:53:16 10° N
SL-16 R/B 2.2 01:48:33 58° SE 01:49:10 62° ESE 01:54:46 10° NNE
Cosmos 1437 Rocket 3.5 01:53:45 48° ENE 01:53:45 48° ENE 01:57:23 10° NNE
Cosmos 2322 Rocket 2.2 01:54:35 61° SSE 01:55:21 70° ESE 02:01:03 10° NNE
Landsat 5 4.4 01:56:48 37° NW 01:56:48 37° NW 01:59:31 10° NNW
Cosmos 1602 Rocket 3.6 01:51:18 10° N 01:55:46 70° E 01:55:46 70° E
Cosmos 1850 Rocket 4.1 01:50:52 10° NNW 01:56:08 58° WSW 01:56:14 58° WSW
USA 234 4.2 01:50:37 10° ENE 01:56:14 30° SE 01:56:48 29° SE
Cosmos 1238 Rocket 4.4 01:51:22 10° NNW 01:56:30 41° W 01:57:13 40° WSW
ADEOS Rocket 4.3 01:52:27 10° NE 01:57:32 27° E 01:59:36 22° ESE
Cosmos 1689 Rocket 4.5 02:04:14 21° NW 02:04:14 21° NW 02:05:34 10° NNW
Meteor 1-21 4.1 01:58:24 10° N 02:04:02 83° ENE 02:05:12 57° SSE
Cosmos 1666 3.1 02:04:46 62° NNE 02:04:46 62° NNE 02:08:04 10° N
Mayak 0.6 02:02:42 10° NNW 02:05:50 21° WNW 02:06:13 20° WNW
USA 81 3.9 02:03:18 10° N 02:08:35 73° W 02:09:12 65° SW
Cosmos 1110 Rocket 4.1 02:09:07 56° SE 02:09:44 60° ESE 02:14:50 10° NNE
Cosmos 1975 4.1 02:11:35 32° WNW 02:11:35 32° WNW 02:14:57 10° N
CZ-2D R/B 4.3 02:08:34 10° NE 02:12:11 18° E 02:14:56 13° ESE
Cosmos 44 Rocket 3.1 02:08:31 10° NW 02:13:16 86° NE 02:13:48 71° SE
PSLV R/B 3.7 02:15:57 10° N 02:20:45 77° WNW 02:21:15 69° SW
ATLAS 2AS CENTAUR R/B 3.8 02:21:12 30° SSE 02:24:05 40° ESE 02:31:29 10° NE
CZ-4C R/B 3.9 02:21:50 10° WNW 02:27:50 28° WSW 02:27:59 28° WSW
NOSS 3-1 (A) 3.8 02:26:49 35° WSW 02:29:16 59° NW 02:35:53 10° NE
Cosmos 1626 Rocket 4.1 02:26:27 10° NNW 02:30:22 45° W 02:30:22 45° W
Cosmos 2263 Rocket 2.2 02:26:53 10° NNW 02:32:30 60° WSW 02:33:26 53° SSW
NOSS 2-3 (E) 4.3 02:35:19 45° SSE 02:36:02 49° ESE 02:41:18 10° NE
SL-08 ROCKET BODY 4.4 02:35:35 42° S 02:37:45 76° E 02:43:46 10° NNE
Cosmos 1709 Rocket 4.1 02:39:20 44° SW 02:41:07 61° WNW 02:47:11 10° N
PSLV R/B 3.8 02:41:23 75° SSW 02:41:40 81° WSW 02:45:54 10° NNW
ARIANE 5 R/B 4.2 02:38:48 10° NE 02:43:07 26° E 02:45:51 17° SE
Cosmos 2360 Rocket 2.2 02:43:23 46° S 02:45:01 71° ESE 02:50:39 10° NNE
ATLAS 3B R/B 3.4 02:38:42 10° NNW 02:45:22 53° NE 02:51:44 10° ESE
Cosmos 1980 Rocket 4.0 02:43:36 14° W 02:46:49 22° NW 02:51:08 10° N
Cosmos 2219 Rocket 4.1 02:44:12 14° SE 02:47:10 21° E 02:51:16 10° NE
Cosmos 1331 Rocket 3.9 02:46:22 52° SW 02:47:35 74° WNW 02:52:46 10° NNE
Meteor 1-4 Rocket 2.7 02:48:42 63° E 02:48:42 63° E 02:52:14 10° NNE
Cosmos 1743 4.5 02:51:03 21° WNW 02:51:03 21° WNW 02:53:57 10° NNW
Cosmos 1825 Rocket 3.4 02:46:51 10° N 02:51:16 88° W 02:52:01 61° S
Cosmos 1844 Rocket 3.6 02:45:47 10° NNW 02:51:17 48° ENE 02:56:46 10° SE
Meteor 2-13 Rocket 4.4 02:49:39 39° S 02:52:05 85° E 02:58:16 10° N
Cosmos 2228 4.2 02:52:45 28° SE 02:54:14 37° E 02:58:12 10° NNE
Cosmos 1758 Rocket 3.6 02:50:07 10° N 02:54:28 74° E 02:55:36 48° SSE
Cosmos 1842 4.3 02:52:02 10° NNW 02:55:02 33° WNW 02:55:02 33° WNW
Cosmos 44 3.6 02:51:29 10° NW 02:54:54 40° W 02:54:54 40° W
SL-8 R/B 3.6 02:56:08 56° SW 02:57:02 72° SSE 03:01:52 10° ENE
COSMOS 2428 3.5 02:59:19 28° SSE 03:01:49 44° ESE 03:07:15 10° NE
Helios 1A Rocket 3.0 03:00:07 10° N 03:04:06 57° WNW 03:04:37 52° WSW
H-2A R/B 4.0 03:01:28 10° NNW 03:04:32 21° WNW 03:05:02 21° WNW
CBERS-1 3.9 03:03:48 10° NNE 03:08:59 87° WNW 03:10:52 40° SSW
NOSS 2-3 (C) 3.9 03:07:38 45° SSW 03:09:11 87° SE 03:14:51 10° NE
Iridium 4 Rocket 3.9 03:07:50 28° SSE 03:10:59 71° E 03:16:26 10° N
Cosmos 1486 Rocket 4.1 03:08:33 10° NNW 03:13:45 58° WSW 03:15:34 38° SSW
Cosmos 1378 3.4 03:11:25 10° N 03:15:08 63° E 03:16:27 36° SSE
USA 238 DEB 4.1 03:09:47 10° NW 03:16:52 68° NE 03:23:59 10° SE
USA 238 4.1 03:09:54 10° NW 03:16:58 67° NE 03:24:05 10° SE
Lacrosse 5 rocket 2.0 03:13:15 10° NW 03:17:04 53° NE 03:21:08 10° ESE
Cosmos 2322 3.7 03:15:50 37° SW 03:18:11 79° WNW 03:23:53 10° NNE
Resurs 1-4 Rocket 2.4 03:13:40 10° NNE 03:18:55 63° ESE 03:21:45 27° S
SL-08 R/B 3.4 03:18:57 42° SW 03:20:00 51° W 03:24:31 10° NNW
Cosmos 2333 Rocket 3.6 03:16:29 16° SSE 03:20:10 31° ESE 03:25:04 10° NE
SL-16 R/B 2.5 03:15:50 20° SSE 03:20:26 86° WSW 03:26:44 10° NNW
Cosmos 2184 Rocket 4.0 03:18:46 33° SSW 03:21:42 71° W 03:27:53 10° N
Cosmos 389 Rocket 4.0 03:22:53 21° SE 03:24:34 31° E 03:27:48 10° NNE
Cosmos 2278 Rocket 3.7 03:20:32 10° NNW 03:25:49 38° NE 03:31:04 10° ESE
UNK 3.6 03:26:56 30° S 03:29:11 75° WSW 03:33:50 10° NNW
Cosmos 1354 Rocket 3.9 03:24:22 10° NNW 03:29:42 80° WSW 03:33:54 17° SSE
IRS-1C 4.1 03:25:17 10° N 03:30:38 74° WNW 03:33:14 31° SSW
Cosmos 1953 Rocket 4.0 03:27:12 10° NNW 03:31:30 46° W 03:32:41 37° SW
AQUA 4.0 03:27:06 10° N 03:31:48 58° WNW 03:33:42 34° SW
SL-16 R/B 3.7 03:30:24 15° W 03:33:43 25° NW 03:38:23 10° N
DELTA 2 R/B (1) 3.9 03:32:19 31° SW 03:34:25 46° S 03:39:44 10° ESE
ATLAS CENTAUR R/B 3.9 03:26:08 10° NW 03:34:26 41° NNE 03:37:48 10° E
Abrixas rocket 4.3 03:34:57 17° SE 03:34:57 17° SE 03:37:10 10° E
Cosmos 1707 2.8 03:31:15 10° NNW 03:35:03 58° W 03:36:03 42° SSW
GENESIS II 4.1 03:31:19 10° NW 03:35:15 64° WSW 03:37:22 25° SSE
Meteor 1-24 Rocket 3.9 03:32:37 10° N 03:38:02 71° ENE 03:43:38 10° SSE
Cosmos 2058 Rocket 3.1 03:36:39 35° SSW 03:38:27 66° W 03:42:57 10° N
USA 234 3.3 03:33:07 10° NE 03:39:43 86° NW 03:44:08 23° WSW
Cosmos 2322 Rocket 3.9 03:36:23 14° W 03:39:58 23° NW 03:44:28 10° N
Lacrosse 5 4.1 03:39:43 10° SSE 03:42:40 16° ESE 03:45:38 10° E
ADEOS Rocket 3.4 03:37:28 10° N 03:43:25 49° WNW 03:46:32 25° SW
Meteor 2-5 Rocket 3.8 03:40:10 10° NNW 03:45:46 64° W 03:49:55 19° S
CZ-2D R/B 4.4 03:41:41 10° NNE 03:45:49 44° E 03:48:59 15° SSE
Nadezhda 3 Rocket 4.0 03:40:56 10° NNW 03:47:11 76° W 03:52:38 14° S
Cosmos 2333 4.2 03:44:12 26° SSW 03:47:34 90° SW 03:53:17 10° NNE
NOSS 2-3 (D) 4.4 03:45:16 25° WSW 03:48:01 54° NW 03:53:40 10° NNE
ERBS 3.9 03:48:58 21° SSE 03:50:09 25° SE 03:53:04 10° ENE
Cosmos 1766 3.5 03:49:22 22° S 03:51:46 68° E 03:55:42 10° NNE
Cosmos 962 Rocket 4.5 03:47:03 17° S 03:51:53 82° E 03:58:04 10° N
Cosmos 1844 3.6 03:46:29 10° NNW 03:52:07 79° WSW 03:57:46 10° SSE
Cosmos 1726 Rocket 4.4 03:50:51 26° WSW 03:52:27 34° WNW 03:56:32 10° N
CZ-2D R/B 2.2 03:47:18 10° N 03:52:47 70° WNW 03:56:15 23° SSW
Cosmos 1607 4.4 03:50:14 10° NW 03:56:11 40° WSW 04:02:07 10° S
BREEZE-M DEB (TANK) 4.3 03:56:16 21° SSW 03:59:25 50° SE 04:15:57 10° ENE
IRS-1D 3.7 03:57:28 10° N 04:02:19 56° WNW 04:05:26 22° SW
Okean O Rocket 4.2 03:59:57 10° NE 04:02:58 18° E 04:05:57 10° SE
Cosmos 1184 Rocket 3.7 04:00:08 10° NNW 04:03:06 30° W 04:03:38 28° WSW
Spot 4 Rocket 4.3 03:59:30 10° N 04:04:32 53° WNW 04:07:51 21° SW
MOS 1 Rocket 3.1 04:00:33 10° N 04:05:02 72° WNW 04:07:53 21° SSW
OAO 3 Rocket 4.5 04:06:15 20° SSW 04:06:46 20° S 04:10:19 10° SE
ADEOS 3.7 04:06:42 10° N 04:11:51 60° WNW 04:15:41 18° SSW
ATLAS 2AS CENTAUR R/B 3.4 04:08:38 17° WSW 04:14:53 60° NW 04:22:59 10° NE
Cosmos 2154 Rocket 4.3 04:12:07 18° SW 04:16:40 50° WNW 04:22:46 10° N
In-Cosmos 22 4.0 04:12:18 10° NNW 04:17:38 71° W 04:22:52 10° S
Cosmos 1544 3.0 04:15:09 17° SSW 04:17:53 81° W 04:21:39 10° N
Cosmos 1992 Rocket 4.2 04:16:51 18° SW 04:20:36 60° WNW 04:25:47 10° NNE
Timation 1 Rocket 4.3 04:14:53 10° NNW 04:20:54 88° WSW 04:26:53 10° SSE
Cosmos 1805 3.3 04:17:43 13° S 04:21:11 83° E 04:25:07 10° N
ARIANE 5 R/B 3.1 04:17:33 10° N 04:22:23 43° WNW 04:26:12 16° SW
NOSS 3-4 (A) 4.3 04:16:55 10° S 04:22:49 45° ESE 04:28:56 10° NE
NOSS 3-4 (C) 4.4 04:17:00 10° S 04:22:54 44° ESE 04:29:00 10° NE
Cosmos 1271 Rocket 3.9 04:23:44 18° WSW 04:25:56 29° WNW 04:29:26 10° N
Cosmos 2360 Rocket 3.8 04:25:12 10° W 04:29:35 23° NW 04:33:59 10° N
Cosmos 2219 Rocket 2.4 04:25:56 15° SW 04:30:35 64° WNW 04:36:15 10° NNE
Tiangong 1 3.1 04:31:28 11° S 04:32:40 14° SSE 04:34:13 10° ESE
Cosmos 1340 Rocket 4.0 04:29:29 10° NW 04:32:44 24° W 04:34:59 15° SW
Cosmos 2366 rocket 4.1 04:27:09 10° S 04:33:18 79° E 04:39:34 10° N
Cosmos 1844 Rocket 3.6 04:30:10 10° NW 04:34:55 28° WSW 04:39:40 10° SSW
ATLAS 3B R/B 3.1 04:29:48 10° NW 04:35:49 36° WSW 04:41:38 10° S
Cosmos 1980 3.7 04:33:22 11° SSW 04:38:48 88° WNW 04:44:32 10° NNE
Cosmos 2237 Rocket 2.2 04:34:01 11° SSW 04:39:31 88° ESE 04:45:11 10° NNE
SL-8 R/B 4.2 04:34:57 10° W 04:39:44 62° N 04:44:32 10° ENE
Meteor 1-21 Rocket 4.4 04:36:14 10° N 04:42:03 88° ENE 04:47:56 10° S
SeaSat 1 3.1 04:37:18 10° SE 04:42:09 61° ENE 04:47:02 10° NNW
UNKNOWN OBJECT B 3.5 04:38:44 10° N 04:42:18 37° WNW 04:45:33 12° SW
BREEZE-M DEB (TANK) 2.6 04:43:17 13° WSW 04:45:53 70° SSE 04:52:14 10° ENE
COSMOS 2428 3.8 04:41:21 11° WSW 04:46:13 33° NW 04:51:24 10° NNE
Aureole 2 Rocket 3.9 04:43:07 13° WSW 04:46:15 30° WNW 04:49:45 10° N
CZ-4B R/B 4.4 04:42:39 10° NNE 04:48:04 44° E 04:53:23 10° S
Cosmos 864 Rocket 4.5 04:42:18 10° S 04:48:27 86° W 04:54:37 10° N
ADEOS II 2.3 04:45:37 10° NNE 04:50:54 75° ESE 04:56:09 10° S
MOS 1-B 4.4 04:48:27 10° NNE 04:54:17 84° WNW 05:00:06 10° SSW
Lacrosse 5 rocket 2.3 04:52:47 10° WNW 04:56:06 25° SW 04:59:33 10° S
Cosmos 1777 Rocket 4.0 04:51:05 10° NNW 04:56:20 83° WSW 05:01:35 10° SSE
Cosmos 2218 Rocket 4.2 04:51:51 10° SSW 04:58:05 63° WNW 05:04:27 10° N
Resurs 1-4 Rocket 3.7 04:54:30 10° NNW 04:58:18 20° WNW 05:02:03 10° WSW
Cosmos-2242 3.9 04:54:31 10° S 04:58:40 52° E 05:02:52 10° NNE
Cosmos 389 Rocket 4.4 04:57:03 10° WSW 04:59:31 17° WNW 05:02:00 10° NNW
BREEZE-M DEB (TANK) 4.2 04:55:58 10° WNW 05:00:40 77° SSW 05:19:58 10° SE
Meteor 2-14 Rocket 4.5 04:57:32 10° SSW 05:03:35 68° W 05:09:41 10° N
Cosmos 2333 Rocket 2.8 04:58:47 10° SW 05:04:13 45° WNW 05:09:41 10° NNE
SL-16 R/B 4.2 05:01:40 10° WSW 05:04:55 14° W 05:08:12 10° NW
USA 161 2.7 05:04:47 10° SSW 05:07:16 24° W 05:09:40 10° NW
Cosmos 1758 4.0 05:04:37 10° SW 05:08:25 39° WNW 05:12:15 10° N
Cosmos 2278 Rocket 2.7 05:04:43 10° NW 05:09:52 37° WSW 05:15:00 10° S
